This is the latest recevied weather packets stored in our database for station/object K2CAT. If no packets are shown the sender has not sent any weather packets the latest 10 day(s).
| Time | Temp. | Humidity | Pressure | Rain* | Wind** | Luminosity | Snow |
|---|---|---|---|---|---|---|---|
| 1777057774 | 16.67° C | 32% | 1010.2 hPa | 0 mm | - | 566 W/m² | - |
| 1777057469 | 16.67° C | 27% | 1010.3 hPa | 0 mm | - | 575 W/m² | - |
| 1777057166 | 16.67° C | 26% | 1010.3 hPa | 0 mm | - | 580 W/m² | - |
| 1777056861 | 16.67° C | 33% | 1010.3 hPa | 0 mm | - | 588 W/m² | - |
| 1777056561 | 16.67° C | 29% | 1010.3 hPa | 0 mm | - | 595 W/m² | - |
| 1777056256 | 15.56° C | 31% | 1010.3 hPa | 0 mm | - | 606 W/m² | - |
| 1777055952 | 15.56° C | 25% | 1010.4 hPa | 0 mm | - | 613 W/m² | - |
| 1777055649 | 15.56° C | 24% | 1010.4 hPa | 0 mm | - | 621 W/m² | - |
| 1777055344 | 16.11° C | 25% | 1010.2 hPa | 0 mm | - | 628 W/m² | - |
| 1777055043 | 16.11° C | 29% | 1010.3 hPa | 0 mm | - | 633 W/m² | - |
| 1777054739 | 16.67° C | 25% | 1010.3 hPa | 0 mm | - | 641 W/m² | - |
| 1777054436 | 16.11° C | 29% | 1010 hPa | 0 mm | - | 647 W/m² | - |
| 1777054135 | 15.56° C | 24% | 1010.5 hPa | 0 mm | - | 653 W/m² | - |
| 1777053831 | 16.11° C | 26% | 1010.3 hPa | 0 mm | - | 657 W/m² | - |
| 1777053531 | 15.56° C | 33% | 1010.5 hPa | 0 mm | - | 662 W/m² | - |
| 1777053226 | 15° C | 33% | 1010.3 hPa | 0 mm | - | 666 W/m² | - |
| 1777052923 | 16.11° C | 35% | 1010.3 hPa | 0 mm | - | 671 W/m² | - |
| 1777052618 | 15.56° C | 33% | 1010.5 hPa | 0 mm | - | 674 W/m² | - |
| 1777052314 | 15.56° C | 32% | 1010.4 hPa | 0 mm | - | 678 W/m² | - |
| 1777052010 | 16.11° C | 40% | 1010.5 hPa | 0 mm | - | 681 W/m² | - |
| 1777051708 | 16.11° C | 34% | 1010.6 hPa | 0 mm | - | 683 W/m² | - |
| 1777051403 | 15.56° C | 38% | 1010.5 hPa | 0 mm | - | 685 W/m² | - |
| 1777051100 | 15.56° C | 39% | 1010.5 hPa | 0 mm | - | 687 W/m² | - |
| 1777050796 | 15° C | 38% | 1010.9 hPa | 0 mm | - | 689 W/m² | - |
| 1777050491 | 15° C | 40% | 1010.7 hPa | 0 mm | - | 689 W/m² | - |
* Rain latest hour (hover to see other rain measurements)
** Current wind speed in m/s (hover to see current wind gust speed)